Simultaneous Nadir Overpasses (SNOs) Predictions

Prediction of SNOs between GOES-17 and METOP-A Satellite Orbit:

Table of predicted SNOs for the next 14.0 days since TLE Epoch: 5/31/2019
Index Date Time (GOES-17) GOES-17 Lat,Lon METOP-A Lat,Lon Distance(km) Time Diff (sec)
1 05/31/2019 18:12:05 0.01,-137.21 -0.23,-136.22 112.59 80
2 06/02/2019 06:31:05 -0.01,-137.18 -0.85,-140.83 416.72 80
3 06/03/2019 06:07:47 -0.01,-137.18 0.28,-135.86 150.55 80
4 06/04/2019 18:26:40 0.01,-137.20 0.71,-140.45 370.28 80
5 06/05/2019 18:08:41 0.00,-137.19 -0.36,-135.46 196.51 80
6 06/07/2019 06:27:42 0.01,-137.15 -0.65,-140.09 334.60 80
7 06/08/2019 06:04:23 0.02,-137.14 0.48,-135.11 231.44 80
8 06/09/2019 18:23:17 -0.03,-137.14 0.51,-139.70 290.99 80
9 06/10/2019 18:05:17 -0.03,-137.13 -0.56,-134.71 275.27 80
10 06/12/2019 06:24:19 0.03,-137.09 -0.45,-139.34 256.00 80
11 06/13/2019 06:00:59 0.03,-137.07 0.63,-134.35 309.80 80




NCC Satellite Simultaneous Nadir Overpasses (SNOs) Prediction Service
